����������;��������(kWh)
2016-12-19 00:00;92
2016-12-19 00:15;91,6
2016-12-19 00:30;91,6
2016-12-19 00:45;90,45
2016-12-19 01:00;88,25
2016-12-19 01:15;90,6
2016-12-19 01:30;92,15
2016-12-19 01:45;90,1
2016-12-19 02:00;91,8
2016-12-19 02:15;89,85
2016-12-19 02:30;88,9
2016-12-19 02:45;88,65
2016-12-19 03:00;90,2
2016-12-19 03:15;87,7
2016-12-19 03:30;91,1
2016-12-19 03:45;88,5
2016-12-19 04:00;89,9
2016-12-19 04:15;88,6
2016-12-19 04:30;89,75
2016-12-19 04:45;88,75
2016-12-19 05:00;88,9
2016-12-19 05:15;91,1
2016-12-19 05:30;89,5
2016-12-19 05:45;88,3
2016-12-19 06:00;93,4
2016-12-19 06:15;92,8
2016-12-19 06:30;94,1
2016-12-19 06:45;92,5
2016-12-19 07:00;95,75
2016-12-19 07:15;102
2016-12-19 07:30;111,25
2016-12-19 07:45;136,45
2016-12-19 08:00;141,05
2016-12-19 08:15;143,75
2016-12-19 08:30;157,45
2016-12-19 08:45;172,55
2016-12-19 09:00;191,35
2016-12-19 09:15;221,35
2016-12-19 09:30;246,9
2016-12-19 09:45;217,95
2016-12-19 10:00;233,25
2016-12-19 10:15;248
2016-12-19 10:30;259,4
2016-12-19 10:45;256,45
2016-12-19 11:00;247,8
2016-12-19 11:15;259,25
2016-12-19 11:30;263,15
2016-12-19 11:45;264,3
2016-12-19 12:00;268,9
2016-12-19 12:15;281,7
2016-12-19 12:30;289,6
2016-12-19 12:45;278,35
2016-12-19 13:00;282,8
2016-12-19 13:15;277,25
2016-12-19 13:30;269,7
2016-12-19 13:45;279,15
2016-12-19 14:00;279,25
2016-12-19 14:15;315,35
2016-12-19 14:30;285,8
2016-12-19 14:45;255,45
2016-12-19 15:00;270,9
2016-12-19 15:15;250,5
2016-12-19 15:30;252,3
2016-12-19 15:45;241,75
2016-12-19 16:00;245,45
2016-12-19 16:15;230,5
2016-12-19 16:30;217,35
2016-12-19 16:45;208,9
2016-12-19 17:00;207,55
2016-12-19 17:15;203,35
2016-12-19 17:30;198,1
2016-12-19 17:45;200,35
2016-12-19 18:00;194,25
2016-12-19 18:15;191,8
2016-12-19 18:30;194,05
2016-12-19 18:45;194,9
2016-12-19 19:00;188,1
2016-12-19 19:15;167,6
2016-12-19 19:30;173,8
2016-12-19 19:45;178,05
2016-12-19 20:00;167,55
2016-12-19 20:15;153,75
2016-12-19 20:30;158,65
2016-12-19 20:45;159
2016-12-19 21:00;151,45
2016-12-19 21:15;150,75
2016-12-19 21:30;152,7
2016-12-19 21:45;146,85
2016-12-19 22:00;140,4
2016-12-19 22:15;146,8
2016-12-19 22:30;142,85
2016-12-19 22:45;139,25
2016-12-19 23:00;138,15
2016-12-19 23:15;127,4
2016-12-19 23:30;129,15
2016-12-19 23:45;127,9
2016-12-20 00:00;127,1
2016-12-20 00:15;125,3
2016-12-20 00:30;124,05
2016-12-20 00:45;125,85
2016-12-20 01:00;111,5
2016-12-20 01:15;110,85
2016-12-20 01:30;108,8
2016-12-20 01:45;110,75
2016-12-20 02:00;109,15
2016-12-20 02:15;110,3
2016-12-20 02:30;109,55
2016-12-20 02:45;108,45
2016-12-20 03:00;109,7
2016-12-20 03:15;109,3
2016-12-20 03:30;108,15
2016-12-20 03:45;109,3
2016-12-20 04:00;107,15
2016-12-20 04:15;108,15
2016-12-20 04:30;107,55
2016-12-20 04:45;107,6
2016-12-20 05:00;108,9
2016-12-20 05:15;111,6
2016-12-20 05:30;117,75
2016-12-20 05:45;119,2
2016-12-20 06:00;123,45
2016-12-20 06:15;128,75
2016-12-20 06:30;122,05
2016-12-20 06:45;119,3
2016-12-20 07:00;121,9
2016-12-20 07:15;127,8
2016-12-20 07:30;123,5
2016-12-20 07:45;162,6
2016-12-20 08:00;157,7
2016-12-20 08:15;158,15
2016-12-20 08:30;170,05
2016-12-20 08:45;190,85
2016-12-20 09:00;202,3
2016-12-20 09:15;209,95
2016-12-20 09:30;222,75
2016-12-20 09:45;233,35
2016-12-20 10:00;234,25
2016-12-20 10:15;237,05
2016-12-20 10:30;251,9
2016-12-20 10:45;259,3
2016-12-20 11:00;272,3
2016-12-20 11:15;280,7
2016-12-20 11:30;290,1
2016-12-20 11:45;287,75
2016-12-20 12:00;284,4
2016-12-20 12:15;286,85
2016-12-20 12:30;281,3
2016-12-20 12:45;295,05
2016-12-20 13:00;285,5
2016-12-20 13:15;279,3
2016-12-20 13:30;285,1
2016-12-20 13:45;275,55
2016-12-20 14:00;277
2016-12-20 14:15;269,6
2016-12-20 14:30;260
2016-12-20 14:45;264,55
2016-12-20 15:00;241,45
2016-12-20 15:15;239,9
2016-12-20 15:30;230,55
2016-12-20 15:45;225
2016-12-20 16:00;222,75
2016-12-20 16:15;206,2
2016-12-20 16:30;199,65
2016-12-20 16:45;194,75
2016-12-20 17:00;195,65
2016-12-20 17:15;197
2016-12-20 17:30;198,05
2016-12-20 17:45;200,75
2016-12-20 18:00;204,95
2016-12-20 18:15;200,95
2016-12-20 18:30;196,05
2016-12-20 18:45;183,15
2016-12-20 19:00;177,6
2016-12-20 19:15;156,1
2016-12-20 19:30;150,85
2016-12-20 19:45;147,15
2016-12-20 20:00;151,65
2016-12-20 20:15;144,2
2016-12-20 20:30;141,9
2016-12-20 20:45;147,1
2016-12-20 21:00;145,8
2016-12-20 21:15;143,65
2016-12-20 21:30;142,3
2016-12-20 21:45;139,55
2016-12-20 22:00;134,45
2016-12-20 22:15;138,05
2016-12-20 22:30;134,15
2016-12-20 22:45;128,35
2016-12-20 23:00;120,2
2016-12-20 23:15;110,5
2016-12-20 23:30;110,3
2016-12-20 23:45;107,65
2016-12-21 00:00;112,25
2016-12-21 00:15;219,3
2016-12-21 00:30;109,4
2016-12-21 00:45;107,35
2016-12-21 01:00;107,3
2016-12-21 01:15;105,8
2016-12-21 01:30;108,55
2016-12-21 01:45;107
2016-12-21 02:00;105,8
2016-12-21 02:15;105,4
2016-12-21 02:30;104,6
2016-12-21 02:45;103,7
2016-12-21 03:00;102,15
2016-12-21 03:15;102,35
2016-12-21 03:30;102,75
2016-12-21 03:45;102,15
2016-12-21 04:00;98,2
2016-12-21 04:15;93,55
2016-12-21 04:30;99,6
2016-12-21 04:45;105,85
2016-12-21 05:00;107,4
2016-12-21 05:15;115,5
2016-12-21 05:30;114,5
2016-12-21 05:45;118,15
2016-12-21 06:00;113,45
2016-12-21 06:15;110,4
2016-12-21 06:30;110,9
2016-12-21 06:45;108,6
2016-12-21 07:00;109,2
2016-12-21 07:15;111,5
2016-12-21 07:30;164,4
2016-12-21 07:45;151,9
2016-12-21 08:00;133,1
2016-12-21 08:15;139,4
2016-12-21 08:30;166,25
2016-12-21 08:45;175,65
2016-12-21 09:00;191,55
2016-12-21 09:15;215,7
2016-12-21 09:30;221,15
2016-12-21 09:45;236,5
2016-12-21 10:00;247,1
2016-12-21 10:15;239,9
2016-12-21 10:30;255,75
2016-12-21 10:45;261,4
2016-12-21 11:00;252,15
2016-12-21 11:15;258
2016-12-21 11:30;260,6
2016-12-21 11:45;254,7
2016-12-21 12:00;275,65
2016-12-21 12:15;279,75
2016-12-21 12:30;277,05
2016-12-21 12:45;283,9
2016-12-21 13:00;272,55
2016-12-21 13:15;283,7
2016-12-21 13:30;274,2
2016-12-21 13:45;273,95
2016-12-21 14:00;256
2016-12-21 14:15;251,8
2016-12-21 14:30;245,65
2016-12-21 14:45;229,7
2016-12-21 15:00;231,4
2016-12-21 15:15;222,2
2016-12-21 15:30;214,25
2016-12-21 15:45;202,45
2016-12-21 16:00;188,45
2016-12-21 16:15;188,95
2016-12-21 16:30;193,6
2016-12-21 16:45;190,45
2016-12-21 17:00;188,95
2016-12-21 17:15;183,9
2016-12-21 17:30;183
2016-12-21 17:45;173,4
2016-12-21 18:00;176,65
2016-12-21 18:15;162,05
2016-12-21 18:30;167,35
2016-12-21 18:45;158,65
2016-12-21 19:00;151,05
2016-12-21 19:15;142,5
2016-12-21 19:30;138,45
2016-12-21 19:45;140,75
2016-12-21 20:00;126,4
2016-12-21 20:15;125,75
2016-12-21 20:30;123,6
2016-12-21 20:45;128,3
2016-12-21 21:00;118,15
2016-12-21 21:15;114,05
2016-12-21 21:30;108,7
2016-12-21 21:45;109,25
2016-12-21 22:00;116,9
2016-12-21 22:15;113,5
2016-12-21 22:30;114,5
2016-12-21 22:45;113,95
2016-12-21 23:00;106,35
2016-12-21 23:15;109,4
2016-12-21 23:30;107,65
2016-12-21 23:45;114,9
2016-12-22 00:00;0
2016-12-22 00:15;112,2
2016-12-22 00:30;115,8
2016-12-22 00:45;108,8
2016-12-22 01:00;113,95
2016-12-22 01:15;107,25
2016-12-22 01:30;112,2
2016-12-22 01:45;99,25
2016-12-22 02:00;101,8
2016-12-22 02:15;101,6
2016-12-22 02:30;99,85
2016-12-22 02:45;104,75
2016-12-22 03:00;98,7
2016-12-22 03:15;104,25
2016-12-22 03:30;107,2
2016-12-22 03:45;100,9
2016-12-22 04:00;105
2016-12-22 04:15;100,5
2016-12-22 04:30;103
2016-12-22 04:45;105,55
2016-12-22 05:00;100,7
2016-12-22 05:15;110,55
2016-12-22 05:30;112,9
2016-12-22 05:45;130,95
2016-12-22 06:00;124,75
2016-12-22 06:15;133,2
2016-12-22 06:30;130,5
2016-12-22 06:45;135,2
2016-12-22 07:00;122,85
2016-12-22 07:15;131,05
2016-12-22 07:30;125,85
2016-12-22 07:45;127,2
2016-12-22 08:00;137
2016-12-22 08:15;140,3
2016-12-22 08:30;153,55
2016-12-22 08:45;164,3
2016-12-22 09:00;178,6
2016-12-22 09:15;198,5
2016-12-22 09:30;205,75
2016-12-22 09:45;245,15
2016-12-22 10:00;249,65
2016-12-22 10:15;247,4
2016-12-22 10:30;240,45
2016-12-22 10:45;251,1
2016-12-22 11:00;254,8
2016-12-22 11:15;255,8
2016-12-22 11:30;259,4
2016-12-22 11:45;263,3
2016-12-22 12:00;258,6
2016-12-22 12:15;264,2
2016-12-22 12:30;270,8
2016-12-22 12:45;262,3
2016-12-22 13:00;262,35
2016-12-22 13:15;271,15
2016-12-22 13:30;258,9
2016-12-22 13:45;259,45
2016-12-22 14:00;253,5
2016-12-22 14:15;237,5
2016-12-22 14:30;231,55
2016-12-22 14:45;210,95
2016-12-22 15:00;210,15
2016-12-22 15:15;194,5
2016-12-22 15:30;178,2
2016-12-22 15:45;189,1
2016-12-22 16:00;175,25
2016-12-22 16:15;161,2
2016-12-22 16:30;159,75
2016-12-22 16:45;155,45
2016-12-22 17:00;158,95
2016-12-22 17:15;160,3
2016-12-22 17:30;152,55
2016-12-22 17:45;148,6
2016-12-22 18:00;145,9
2016-12-22 18:15;140,4
2016-12-22 18:30;142,75
2016-12-22 18:45;137,8
2016-12-22 19:00;136,45
2016-12-22 19:15;127,85
2016-12-22 19:30;127,1
2016-12-22 19:45;120,5
2016-12-22 20:00;122,9
2016-12-22 20:15;122,9
2016-12-22 20:30;116,75
2016-12-22 20:45;113,8
2016-12-22 21:00;115,75
2016-12-22 21:15;115,6
2016-12-22 21:30;113,8
2016-12-22 21:45;108,4
2016-12-22 22:00;106,95
2016-12-22 22:15;112,95
2016-12-22 22:30;110,3
2016-12-22 22:45;106,65
2016-12-22 23:00;107,75
2016-12-22 23:15;93,45
2016-12-22 23:30;95,55
2016-12-22 23:45;93,85
2016-12-23 00:00;95,1
2016-12-23 00:15;94,25
2016-12-23 00:30;93,15
2016-12-23 00:45;91,25
2016-12-23 01:00;90,5
2016-12-23 01:15;92,5
2016-12-23 01:30;96,25
2016-12-23 01:45;97,15
2016-12-23 02:00;98,95
2016-12-23 02:15;99,55
2016-12-23 02:30;98,8
2016-12-23 02:45;99,2
2016-12-23 03:00;99,8
2016-12-23 03:15;99,95
2016-12-23 03:30;101,45
2016-12-23 03:45;94,05
2016-12-23 04:00;94,5
2016-12-23 04:15;93,05
2016-12-23 04:30;92,5
2016-12-23 04:45;93,75
2016-12-23 05:00;91,9
2016-12-23 05:15;93,35
2016-12-23 05:30;101,5
2016-12-23 05:45;104,7
2016-12-23 06:00;110,5
2016-12-23 06:15;122,8
2016-12-23 06:30;120,55
2016-12-23 06:45;121,4
2016-12-23 07:00;118,7
2016-12-23 07:15;120,6
2016-12-23 07:30;113,2
2016-12-23 07:45;112,4
2016-12-23 08:00;108,05
2016-12-23 08:15;94,5
2016-12-23 08:30;93
2016-12-23 08:45;91,05
2016-12-23 09:00;94,15
2016-12-23 09:15;93
2016-12-23 09:30;94,7
2016-12-23 09:45;97,25
2016-12-23 10:00;99,25
2016-12-23 10:15;99,4
2016-12-23 10:30;103,1
2016-12-23 10:45;98,5
2016-12-23 11:00;99,4
2016-12-23 11:15;103,35
2016-12-23 11:30;105,3
2016-12-23 11:45;105,1
2016-12-23 12:00;127,05
2016-12-23 12:15;130,45
2016-12-23 12:30;130,35
2016-12-23 12:45;129,1
2016-12-23 13:00;129,95
2016-12-23 13:15;130,7
2016-12-23 13:30;124,6
2016-12-23 13:45;78,35
2016-12-23 14:00;76,4
2016-12-23 14:15;75,95
2016-12-23 14:30;74,95
2016-12-23 14:45;72,7
2016-12-23 15:00;77,3
2016-12-23 15:15;96,8
2016-12-23 15:30;106
2016-12-23 15:45;94,1
2016-12-23 16:00;83,25
2016-12-23 16:15;114,65
2016-12-23 16:30;122,05
2016-12-23 16:45;124,25
2016-12-23 17:00;129,35
2016-12-23 17:15;122,75
2016-12-23 17:30;127,75
2016-12-23 17:45;125,2
2016-12-23 18:00;117,05
2016-12-23 18:15;115,25
2016-12-23 18:30;110,35
2016-12-23 18:45;110,55
2016-12-23 19:00;109,85
2016-12-23 19:15;107,5
2016-12-23 19:30;107,4
2016-12-23 19:45;106,55
2016-12-23 20:00;102,85
2016-12-23 20:15;102,6
2016-12-23 20:30;102,6
2016-12-23 20:45;102,55
2016-12-23 21:00;102,55
2016-12-23 21:15;94,4
2016-12-23 21:30;97,55
2016-12-23 21:45;97,5
2016-12-23 22:00;96,15
2016-12-23 22:15;102,2
2016-12-23 22:30;103,05
2016-12-23 22:45;100,25
2016-12-23 23:00;103,6
2016-12-23 23:15;95,2
2016-12-23 23:30;98,45
2016-12-23 23:45;87,3
2016-12-24 00:00;86,65
2016-12-24 00:15;83,95
2016-12-24 00:30;77,35
2016-12-24 00:45;83,3
2016-12-24 01:00;83,5
2016-12-24 01:15;83,6
2016-12-24 01:30;84,6
2016-12-24 01:45;85,15
2016-12-24 02:00;82,05
2016-12-24 02:15;83,95
2016-12-24 02:30;83,65
2016-12-24 02:45;83,7
2016-12-24 03:00;83,3
2016-12-24 03:15;84,5
2016-12-24 03:30;82,7
2016-12-24 03:45;84,7
2016-12-24 04:00;84,65
2016-12-24 04:15;83,9
2016-12-24 04:30;84,2
2016-12-24 04:45;82,15
2016-12-24 05:00;84,6
2016-12-24 05:15;84
2016-12-24 05:30;84
2016-12-24 05:45;81,3
2016-12-24 06:00;81,1
2016-12-24 06:15;79,7
2016-12-24 06:30;81,2
2016-12-24 06:45;80,5
2016-12-24 07:00;79,45
2016-12-24 07:15;80,15
2016-12-24 07:30;78,95
2016-12-24 07:45;78,45
2016-12-24 08:00;77,15
2016-12-24 08:15;78,05
2016-12-24 08:30;82,35
2016-12-24 08:45;83,75
2016-12-24 09:00;84,25
2016-12-24 09:15;81,6
2016-12-24 09:30;81,4
2016-12-24 09:45;82,5
2016-12-24 10:00;84,45
2016-12-24 10:15;83,2
2016-12-24 10:30;77,85
2016-12-24 10:45;77,65
2016-12-24 11:00;77,45
2016-12-24 11:15;78,1
2016-12-24 11:30;76,8
2016-12-24 11:45;76,8
2016-12-24 12:00;77,65
2016-12-24 12:15;78,15
2016-12-24 12:30;77,25
2016-12-24 12:45;78,25
2016-12-24 13:00;79,45
2016-12-24 13:15;79,85
2016-12-24 13:30;80,05
2016-12-24 13:45;78,85
2016-12-24 14:00;79
2016-12-24 14:15;79,65
2016-12-24 14:30;80,45
2016-12-24 14:45;82,2
2016-12-24 15:00;82,1
2016-12-24 15:15;80,1
2016-12-24 15:30;81,3
2016-12-24 15:45;82,9
2016-12-24 16:00;80,35
2016-12-24 16:15;82,25
2016-12-24 16:30;81,25
2016-12-24 16:45;81,05
2016-12-24 17:00;82,2
2016-12-24 17:15;82,45
2016-12-24 17:30;84,4
2016-12-24 17:45;88,6
2016-12-24 18:00;90,1
2016-12-24 18:15;89,5
2016-12-24 18:30;88,9
2016-12-24 18:45;87,1
2016-12-24 19:00;86,45
2016-12-24 19:15;86,1
2016-12-24 19:30;87,7
2016-12-24 19:45;85,75
2016-12-24 20:00;86,3
2016-12-24 20:15;85,8
2016-12-24 20:30;86,2
2016-12-24 20:45;83,1
2016-12-24 21:00;83,2
2016-12-24 21:15;83,45
2016-12-24 21:30;83,05
2016-12-24 21:45;83,4
2016-12-24 22:00;82,3
2016-12-24 22:15;88,65
2016-12-24 22:30;88,55
2016-12-24 22:45;87,7
2016-12-24 23:00;93,65
2016-12-24 23:15;84,05
2016-12-24 23:30;88,15
2016-12-24 23:45;87,95
2016-12-25 00:00;88,6
2016-12-25 00:15;85,85
2016-12-25 00:30;92,1
2016-12-25 00:45;87,3
2016-12-25 01:00;86,65
2016-12-25 01:15;89,3
2016-12-25 01:30;79,75
2016-12-25 01:45;79,65
2016-12-25 02:00;79,4
2016-12-25 02:15;79,25
2016-12-25 02:30;80,35
2016-12-25 02:45;79,3
2016-12-25 03:00;80,45
2016-12-25 03:15;78,65
2016-12-25 03:30;80,4
2016-12-25 03:45;79,6
2016-12-25 04:00;79,55
2016-12-25 04:15;81
2016-12-25 04:30;79,95
2016-12-25 04:45;81,1
2016-12-25 05:00;80,3
2016-12-25 05:15;80,05
2016-12-25 05:30;80,45
2016-12-25 05:45;79,1
2016-12-25 06:00;77,75
2016-12-25 06:15;77,6
2016-12-25 06:30;77,05
2016-12-25 06:45;76,95
2016-12-25 07:00;78,35
2016-12-25 07:15;77,1
2016-12-25 07:30;75,85
2016-12-25 07:45;74,1
2016-12-25 08:00;71,8
2016-12-25 08:15;73,55
2016-12-25 08:30;71,4
2016-12-25 08:45;71,15
2016-12-25 09:00;71,3
2016-12-25 09:15;69,05
2016-12-25 09:30;70,85
2016-12-25 09:45;70,55
2016-12-25 10:00;69
2016-12-25 10:15;69,5
2016-12-25 10:30;68,25
2016-12-25 10:45;69,55
2016-12-25 11:00;70,65
2016-12-25 11:15;68,4
2016-12-25 11:30;70,95
2016-12-25 11:45;69,65
2016-12-25 12:00;69,55
2016-12-25 12:15;71,6
2016-12-25 12:30;70,3
2016-12-25 12:45;71,85
2016-12-25 13:00;69,65
2016-12-25 13:15;70,1
2016-12-25 13:30;69,9
2016-12-25 13:45;69,75
2016-12-25 14:00;68,65
2016-12-25 14:15;70,5
2016-12-25 14:30;68,7
2016-12-25 14:45;69,65
2016-12-25 15:00;70,05
2016-12-25 15:15;69,35
2016-12-25 15:30;70,65
2016-12-25 15:45;72,8
2016-12-25 16:00;70,95
2016-12-25 16:15;71,05
2016-12-25 16:30;72,4
2016-12-25 16:45;72,75
2016-12-25 17:00;74,15
2016-12-25 17:15;75
2016-12-25 17:30;74,65
2016-12-25 17:45;77,05
2016-12-25 18:00;81,35
2016-12-25 18:15;79,9
2016-12-25 18:30;80,65
2016-12-25 18:45;79,3
2016-12-25 19:00;80,3
2016-12-25 19:15;79,35
2016-12-25 19:30;79,25
2016-12-25 19:45;81,6
2016-12-25 20:00;84,2
2016-12-25 20:15;84,4
2016-12-25 20:30;84,7
2016-12-25 20:45;85,9
2016-12-25 21:00;84,7
2016-12-25 21:15;85,85
2016-12-25 21:30;79,25
2016-12-25 21:45;76,9
2016-12-25 22:00;77,6
2016-12-25 22:15;87,85
2016-12-25 22:30;91,95
2016-12-25 22:45;87,25
2016-12-25 23:00;91,65
2016-12-25 23:15;82
2016-12-25 23:30;83,95
2016-12-25 23:45;83,55

